Terug naar catalogus

GALILEO 23

2C9

ActiefNavigatieMEO
NORAD 43566·PAYLOAD·🇪🇺 EU

Gelanceerd Jul 25, 2018 vanaf Guiana Space Centre

Loading…

Volgende Passages (komende 24 uur)

TLE

VersSource: CelesTrak SupGP

Epoch: Sep 13, 2026, 23:59 UTC

1 43566C 18060C   26256.99979167  .00000000  00000+0  00000+0 0  2561
2 43566  57.1361 339.3875 0003528 273.2845  37.7070  1.70476559    15

Volg GALILEO 23 in realtime met AllMySat

Download on the App Store